Regional Weather Roundup
Issued by NWS Little Rock, AR

Home | Current Version | Previous Version | Graphics & Text | Print | Product List | Glossary On
Versions: 1 2 3 4 5 6 7 8 9 10 11 12 13 14 15 16 17 18 19 20 21 22 23 24 25 26 27 28 29 30 31 32
000
ASUS44 KLZK 180105
RWRLZK

WEATHER ROUNDUP FOR ARKANSAS
NATIONAL WEATHER SERVICE LITTLE ROCK AR
700 PM CST FRI NOV 17 2017

NOTE: "FAIR" INDICATES FEW OR NO CLOUDS BELOW 12,000 FEET WITH NO
SIGNIFICANT WEATHER AND/OR OBSTRUCTIONS TO VISIBILITY.

ARZ001-003-010-029-180200-
NORTHWEST ARKANSAS

CITY           SKY/WX    TMP DP  RH WIND       PRES   REMARKS
FAYETTEVILLE   CLEAR     68  62  81 S17       29.65F
FORT SMITH     CLOUDY    73  63  70 SW10      29.68R
HARRISON       CLOUDY    67  61  81 S17G31    29.65F
BENTONVILLE    CLEAR     68  61  78 S15G22    29.65S
ROGERS         CLEAR     67  61  81 S17G28    29.64F
SILOAM SPGS    CLEAR     69  62  78 S21G28    29.64S
HIGHFILL       CLEAR     68  62  81 S15G23    29.63S
SPRINGDALE     CLEAR     68  63  83 S20G28    29.66F
$$

ARZ004-005-016-180200-
NORTH CENTRAL ARKANSAS

CITY           SKY/WX    TMP DP  RH WIND       PRES   REMARKS
BATESVILLE     CLOUDY    70  62  76 S12G21    29.74F
FLIPPIN        PTCLDY    68  61  78 S12G20    29.66F
MTN HOME       PTCLDY    67  62  84 SW18G28   29.65F
$$

ARZ040-041-180200-
WEST CENTRAL ARKANSAS

CITY           SKY/WX    TMP DP  RH WIND       PRES   REMARKS
MENA           MOCLDY    72  72 100 SW6       29.76F
MOUNT IDA      MOCLDY    73  65  75 CALM      29.74S
$$

ARZ009-017-025-026-028-180200-
NORTHEAST ARKANSAS

CITY           SKY/WX    TMP DP  RH WIND       PRES   REMARKS
CORNING        CLOUDY    68  61  77 S21       29.73S
JONESBORO      CLOUDY    68  60  75 S16       29.78F
NEWPORT        CLOUDY    68  60  75 S17       29.76F
WALNUT RIDGE   CLOUDY    67  59  75 S17       29.73F
BLYTHEVILLE    CLOUDY    67  57  70 S14       29.80F
$$

ARZ022-023-033-042-044-180200-
CENTRAL ARKANSAS

CITY           SKY/WX    TMP DP  RH WIND       PRES   REMARKS
LITTLE ROCK    MOCLDY    70  64  81 S12G22    29.77F
N LITTLE ROCK    N/A     70  64  82 S9        29.79S
JACKSONVILLE   CLOUDY    71  64  78 S12       29.76S
SEARCY         CLOUDY    71  65  81 SW13G22   29.78R
HOT SPRINGS    MOCLDY    72  66  81 S9G23     29.78S
RUSSELLVILLE   CLOUDY    72  63  73 S8G17     29.72R
CLINTON        CLOUDY    70  63  78 VRB7      29.74F
$$

ARZ036-180200-
EAST ARKANSAS

CITY           SKY/WX    TMP DP  RH WIND       PRES   REMARKS
WEST MEMPHIS   CLOUDY    68  58  70 S14       29.83S
$$

ARZ050-053-066-070-073-180200-
SOUTHWEST ARKANSAS

CITY           SKY/WX    TMP DP  RH WIND       PRES   REMARKS
ARKADELPHIA    MOCLDY    69  65  86 S3        29.79F
CAMDEN         CLOUDY    72  63  73 S9        29.81S
TEXARKANA      PTCLDY    72  65  78 S10       29.79F
EL DORADO      MOCLDY    70  66  87 S8        29.84S
DE QUEEN       CLOUDY    72  66  81 SE5       29.75S
$$

ARZ056-057-069-180200-
SOUTHEAST ARKANSAS

CITY           SKY/WX    TMP DP  RH WIND       PRES   REMARKS
PINE BLUFF     MOCLDY    70  61  73 SE10      29.81F
STUTTGART      CLOUDY    71  62  73 S17       29.79F
MONTICELLO     PTCLDY    70  62  76 S6        29.85S

$$






USA.gov is the U.S. government's official web portal to all federal, state and local government web resources and services.